Satellite: OKEAN-0
Catalog number: 25860
Epoch time:      05257.95303127
Element set:    0540
Inclination:      097.7540 deg
RA of node:       279.8845 deg
Eccentricity:    0.0000618
Arg of perigee:   110.5782 deg
Mean anomaly:     249.5504 deg
Mean motion:   14.73287652 rev/day
Decay rate:        4.5e-07 rev/day^2
Epoch rev:           33122
Checksum:              298

Satellite: NOAA-16
Catalog number: 26536
Epoch time:      05257.77036200
Element set:    0519
Inclination:      099.0232 deg
RA of node:       216.7716 deg
Eccentricity:    0.0010603
Arg of perigee:   170.8444 deg
Mean anomaly:     189.2925 deg
Mean motion:   14.12271792 rev/day
Decay rate:       -7.5e-07 rev/day^2
Epoch rev:           25670
Checksum:              297

Satellite: NOAA-17
Catalog number: 27453
Epoch time:      05257.82550278
Element set:    0539
Inclination:      098.6535 deg
RA of node:       329.9549 deg
Eccentricity:    0.0012422
Arg of perigee:   151.8310 deg
Mean anomaly:     208.3545 deg
Mean motion:   14.23701403 rev/day
Decay rate:        6.2e-07 rev/day^2
Epoch rev:           16759
Checksum:              308

Satellite: NOAA-18
Catalog number: 28654
Epoch time:      05257.84415488
Element set:    0153
Inclination:      098.7495 deg
RA of node:       202.5169 deg
Eccentricity:    0.0013587
Arg of perigee:   283.4815 deg
Mean anomaly:     076.4861 deg
Mean motion:   14.10881156 rev/day
Decay rate:       2.84e-06 rev/day^2
Epoch rev:           01655
Checksum:              334

/EX
SB KEPS @ AMSAT  $ORB05258.M
Orbital Elements  05258.MISC

HR AMSAT ORBITAL ELEMENTS FOR MANNED AND MISCELLANEOUS SATELLITES
FROM WA5QGD FORT WORTH,TX September 15, 2005
Send SUBSCRIBE KEPS/UNSUBSCRIBE KEPS to majordomo@amsat.org only
BID: ORB05258.M
TO ALL RADIO AMATEURS BT

Satellite: HUBBLE
Catalog number: 20580
Epoch time:      05258.75943374
Element set:     427
Inclination:      028.4675 deg
RA of node:       038.5874 deg
Eccentricity:    0.0004235
Arg of perigee:   154.6020 deg
Mean anomaly:     205.4782 deg
Mean motion:   14.99834054 rev/day
Decay rate:       8.90e-06 rev/day^2
Epoch rev:           64385
Checksum:              316

Satellite: UARS
Catalog number: 21701
Epoch time:      05258.46687105
Element set:     533
Inclination:      056.9791 deg
RA of node:       184.0702 deg
Eccentricity:    0.0006518
Arg of perigee:   101.8408 deg
Mean anomaly:     258.2588 deg
Mean motion:   15.03807547 rev/day
Decay rate:     -6.443e-05 rev/day^2
Epoch rev:           76707
Checksum:              311

Satellite: PO-34
Catalog number: 25520
Epoch time:      05258.73972639
Element set:     275
Inclination:      028.4563 deg
RA of node:       066.8234 deg
Eccentricity:    0.0005817
Arg of perigee:   129.1068 deg
Mean anomaly:     231.0030 deg
Mean motion:   15.16431680 rev/day
Decay rate:      1.814e-05 rev/day^2
Epoch rev:           38034
Checksum:              291

Satellite: ISS
Catalog number: 25544
Epoch time:      05259.03443287
Element set:     365
Inclination:      051.6435 deg
RA of node:       155.7303 deg
Eccentricity:    0.0002159
Arg of perigee:   077.2968 deg
Mean anomaly:     122.3652 deg
Mean motion:   15.72995246 rev/day
Decay rate:     2.3166e-04 rev/day^2
Epoch rev:           38997
Checksum:              322

Satellite: OO-38
Catalog number: 26063
Epoch time:      05257.67747656
Element set:     438
Inclination:      100.2026 deg
RA of node:       134.0412 deg
Eccentricity:    0.0037029
Arg of perigee:   162.9649 deg
Mean anomaly:     197.2850 deg
Mean motion:   14.35732633 rev/day
Decay rate:      -1.10e-06 rev/day^2
Epoch rev:           29513
Checksum:              296

Satellite: NO-45
Catalog number: 26932
Epoch time:      05258.75342598
Element set:     126
Inclination:      067.0603 deg
RA of node:       354.2020 deg
Eccentricity:    0.0004074
Arg of perigee:   250.9097 deg
Mean anomaly:     109.1573 deg
Mean motion:   14.29498786 rev/day
Decay rate:       -1.3e-07 rev/day^2
Epoch rev:           20674
Checksum:              307

/EX



----
Via the keps mailing list at AMSAT.ORG courtesy of AMSAT-NA.
To unsubscribe, send "unsubscribe keps" to Majordomo@amsat.org

--- ViaMAIL!/WC v1.60d
 * Origin: Chowdanet (401-724-4410) telnet://chowdanet.com  (1:323/120)